Погода в Гунэе

Россия / Забайкальский край     50°31′09″N   114°33′23″E
темп.,
°C
ветер,
м/с
пор.,
м/с
влажн.,
%
обл.,
%
осадки,
мм/ч
давл.,
гПа
погр.,
м
15 мая, сб
сб1500:00+7зсз7135620 0.0 1013422
03:00+6сз7155446 0.0 1013430
06:00+5зсз614512 0.0 1014364
09:00+10зсз69360 0.0 1015700
12:00+14зсз68240 0.0 10122064
15:00+17зсз610175 0.0 10093156
18:00+19зсз6101362 0.0 10073927
21:00+14з35245 0.0 100856
16 мая, вс
вс1600:00+11зсз514290 0.0 1010356
03:00+8зсз511480 0.0 1012352
06:00+6з714435 0.0 1012521
09:00+11зсз1014410 0.0 10101287
12:00+17зсз9123399 0.0 10081771
15:00+20зсз9122685 0.0 10052679
18:00+20зсз9142667 0.0 10032945
21:00+16сз71338100 0.0 1004481
17 мая, пн
пн1700:00+12сз7135499 0.0 1007810
03:00+9зсз486739 0.0 1008199
06:00+7з3478100 0.0 100777
09:00+12з3551100 0.0 1004725
12:00+18ююз6934100 0.0 9991881
15:00+19з61036100 0.0 9961987
18:00+13ссз6126497 0.0 9991335
21:00+11ссз71166100 0.0 10021039
18 мая, вт
вт1800:00+8сз91460100 0.0 1004876
03:00+6сз81455100 0.0 1007526
06:00+5зсз496264 0.0 1009327
09:00+9сз811368 0.0 10081612
12:00+13сз8102010 0.0 10072337
15:00+15зсз7101971 0.0 10052922
18:00+16сз8112171 0.0 10032973
21:00+12сз3434100 0.0 100465
19 мая, ср
ср1900:00+9зюз114081 0.0 100510
03:00+8сз1146100 0.0 100410
06:00+8ю114887 0.0 100312
09:00+12всв1238100 0.0 1001604
12:00+8с4277100 2.0 1003696
15:00+11зсз446299 3.5 1000979
18:00+13сз565442 0.0 10001247
21:00+10зсз34655 0.0 100166